TimeMST,TemperatureF,Dew PointF,Humidity,Sea Level PressureIn,VisibilityMPH,Wind Direction,Wind SpeedMPH,Gust SpeedMPH,PrecipitationIn,Events,Conditions,WindDirDegrees,DateUTC
12:13 AM,12.2,1.4,62,29.95,10.0,Calm,Calm,-,N/A,,Clear,0,2012-12-10 07:13:00
12:31 AM,12.2,1.4,62,29.94,10.0,South,3.5,-,N/A,,Clear,180,2012-12-10 07:31:00
12:52 AM,14.0,1.4,57,29.93,10.0,SSE,4.6,-,N/A,,Clear,150,2012-12-10 07:52:00
1:14 AM,17.6,-2.2,42,29.92,10.0,West,5.8,-,N/A,,Clear,270,2012-12-10 08:14:00
1:56 AM,21.2,-7.6,28,29.91,10.0,West,10.4,-,N/A,,Clear,280,2012-12-10 08:56:00
2:12 AM,23.0,-5.8,28,29.91,10.0,West,11.5,-,N/A,,Clear,280,2012-12-10 09:12:00
2:34 AM,24.8,-5.8,26,29.90,10.0,WNW,9.2,-,N/A,,Mostly Cloudy,300,2012-12-10 09:34:00
2:54 AM,24.8,-5.8,26,29.89,10.0,NNW,5.8,-,N/A,,Overcast,330,2012-12-10 09:54:00
3:16 AM,19.4,-4.0,36,29.87,10.0,SE,3.5,-,N/A,,Mostly Cloudy,130,2012-12-10 10:16:00
3:34 AM,17.6,-0.4,45,29.86,10.0,Calm,Calm,-,N/A,,Scattered Clouds,0,2012-12-10 10:34:00
3:56 AM,21.2,-5.8,30,29.86,10.0,West,6.9,-,N/A,,Clear,260,2012-12-10 10:56:00
4:11 AM,19.4,-5.8,33,29.85,10.0,NW,12.7,-,N/A,,Clear,310,2012-12-10 11:11:00
4:55 AM,17.6,-2.2,42,29.86,10.0,West,13.8,-,N/A,,Clear,280,2012-12-10 11:55:00
5:51 AM,24.8,-5.8,26,29.87,50.0,West,15.0,20.7,N/A,,Scattered Clouds,270,2012-12-10 12:51:00
6:59 AM,26.6,-5.8,24,29.84,70.0,West,29.9,40.3,N/A,,Scattered Clouds,280,2012-12-10 13:59:00
7:49 AM,28.4,-5.8,23,29.84,70.0,West,29.9,39.1,N/A,,Scattered Clouds,280,2012-12-10 14:49:00
8:55 AM,30.2,-2.2,25,29.81,70.0,West,40.3,48.3,N/A,,Mostly Cloudy,280,2012-12-10 15:55:00
9:47 AM,32.0,-2.2,23,29.83,60.0,West,28.8,38.0,N/A,,Mostly Cloudy,280,2012-12-10 16:47:00
10:54 AM,33.8,-2.2,22,29.85,70.0,North,5.8,-,N/A,,Mostly Cloudy,360,2012-12-10 17:54:00
11:58 AM,37.4,-4.0,17,29.82,70.0,WNW,24.2,36.8,N/A,,Scattered Clouds,290,2012-12-10 18:58:00
12:47 PM,37.4,-2.2,19,29.82,70.0,West,21.9,35.7,N/A,,Scattered Clouds,260,2012-12-10 19:47:00
1:47 PM,37.4,-2.2,19,29.81,70.0,WNW,15.0,23.0,N/A,,Mostly Cloudy,300,2012-12-10 20:47:00
2:53 PM,35.6,-0.4,22,29.81,70.0,West,18.4,-,N/A,,Mostly Cloudy,260,2012-12-10 21:53:00
3:47 PM,35.6,-0.4,22,29.83,60.0,WNW,11.5,18.4,N/A,,Mostly Cloudy,300,2012-12-10 22:47:00
4:49 PM,32.0,-0.4,25,29.83,60.0,WNW,13.8,18.4,N/A,,Mostly Cloudy,290,2012-12-10 23:49:00
5:49 PM,32.0,-0.4,25,29.83,60.0,WNW,17.3,-,N/A,,Scattered Clouds,290,2012-12-11 00:49:00
6:47 PM,30.2,-0.4,27,29.86,30.0,WNW,8.1,-,N/A,,Mostly Cloudy,300,2012-12-11 01:47:00
7:48 PM,32.0,-0.4,25,29.87,30.0,WNW,9.2,-,N/A,,Mostly Cloudy,300,2012-12-11 02:48:00
8:46 PM,28.4,1.4,31,29.88,20.0,Calm,Calm,-,N/A,,Mostly Cloudy,0,2012-12-11 03:46:00
9:47 PM,28.4,1.4,31,29.90,20.0,ENE,4.6,-,N/A,,Mostly Cloudy,60,2012-12-11 04:47:00
10:16 PM,30.2,8.6,40,29.93,10.0,NE,11.5,17.3,N/A,,Overcast,50,2012-12-11 05:16:00
10:36 PM,28.4,15.8,59,29.95,10.0,NE,11.5,-,N/A,,Overcast,40,2012-12-11 05:36:00
10:56 PM,26.6,17.6,69,29.96,4.0,NE,9.2,-,N/A,Snow,Light Snow,50,2012-12-11 05:56:00
11:15 PM,26.6,21.2,80,29.97,1.5,ENE,4.6,-,N/A,Snow,Light Snow,70,2012-12-11 06:15:00
11:35 PM,26.6,21.2,80,29.97,1.5,Calm,Calm,-,N/A,Snow,Light Snow,0,2012-12-11 06:35:00
11:56 PM,26.6,23.0,86,29.97,1.5,Calm,Calm,-,N/A,Snow,Light Snow,0,2012-12-11 06:56:00